Location: Unspecified
(44.0704°N, 88.6889°W)
Time: 20:07:43
(UTC+02:00)

Altair - Pass Details

Date: 16 June 2019
Orbit: 1501 x 1683 km, 47.2° (Epoch: 19 August)

Event Time Altitude Azimuth Distance (km) Brightness Sun altitude
Rises 07:18:29 0° 261° (W) 4,782 10.1 -22.1°
Reaches altitude 10° 07:21:32 10° 263° (W) 3,822 9.6 -22.1°
Maximum altitude 07:31:23 78° 350° (N) 1,684 7.7 -22.4°
Drops below altitude 10° 07:41:33 10° 77° (ENE) 3,939 9.7 -22.5°
Sets 07:44:46 0° 79° (E) 4,935 10.3 -22.5°
